Location: Allen Fire Department Station 4
(33.1073°N, 96.6988°W)
Time: 11:56:10
(UTC+00:00)

DMSP B5D2-2 - Pass Details

Date: 03 December 2021
Orbit: 790 x 805 km, 98.3° (Epoch: 24 January)

Event Time Altitude Azimuth Distance (km) Brightness Sun altitude
Rises 12:17:40 0° 160° (SSE) 3,284 7.9 -11.7°
Reaches altitude 10° 12:20:00 10° 158° (SSE) 2,356 7.1 -11.2°
Maximum altitude 12:25:10 71° 76° (ENE) 837 4.4 -10.2°
Drops below altitude 10° 12:30:22 10° 353° (N) 2,362 6.3 -9.2°
Sets 12:32:42 0° 351° (N) 3,293 7.0 -8.7°
